Overview Statistics Trail Chart Weather Telemetry Raw packets
 

This is the latest recevied weather packets stored in our database for station/object KI5NXU. If no packets are shown the sender has not sent any weather packets the latest 10 day(s).

<< 27 28 29 30 31 32 33 >>
Time Temp. Humidity Pressure Rain* Wind** Luminosity Snow
1788197011 35° C 41% 1016.8 hPa 0 mm - 760 W/m² -
1788196710 35.56° C 40% 1016.9 hPa 0 mm - 766 W/m² -
1788196407 35.56° C 40% 1017 hPa 0 mm - 757 W/m² -
1788196103 36.11° C 40% 1017.1 hPa 0 mm - 733 W/m² -
1788195799 35° C 41% 1017.2 hPa 0 mm - 753 W/m² -
1788195496 35° C 42% 1017.1 hPa 0 mm - 781 W/m² -
1788195192 35° C 42% 1017.2 hPa 0 mm - 751 W/m² -
1788194888 34.44° C 43% 1017.1 hPa 0 mm - 731 W/m² -
1788194584 35° C 42% 1017.2 hPa 0 mm - 760 W/m² -
1788194279 35° C 42% 1017.3 hPa 0 mm - 761 W/m² -
1788193974 35° C 43% 1017.2 hPa 0 mm - 740 W/m² -
1788193673 34.44° C 44% 1017.3 hPa 0 mm - 737 W/m² -
1788193368 33.89° C 44% 1017.3 hPa 0 mm - 735 W/m² -
1788193062 33.33° C 47% 1017.4 hPa 0 mm - 735 W/m² -
1788192778 32.78° C 51% 1017.1 hPa 0 mm - 715 W/m² -
1788192452 33.33° C 47% 1017.3 hPa 0 mm - 695 W/m² -
1788192147 32.22° C 50% 1017.3 hPa 0 mm - 690 W/m² -
1788191847 31.67° C 52% 1017.2 hPa 0 mm - 688 W/m² -
1788191542 31.67° C 53% 1017.2 hPa 0 mm - 666 W/m² -
1788191238 31.67° C 52% 1017.3 hPa 0 mm - 635 W/m² -
1788190934 31.67° C 53% 1017 hPa 0 mm - 624 W/m² -
1788190633 31.67° C 54% 1016.9 hPa 0 mm - 580 W/m² -
1788190329 31.67° C 55% 1016.9 hPa 0 mm - 558 W/m² -
1788190024 30.56° C 56% 1016.8 hPa 0 mm - 552 W/m² -
1788189721 30.56° C 57% 1016.8 hPa 0 mm - 559 W/m² -

* Rain latest hour (hover to see other rain measurements)
** Current wind speed in m/s (hover to see current wind gust speed)